Regional Weather Roundup
Issued by NWS

Home | Current Version | Previous Version | Text Only | Print | Product List | Glossary On
Versions: 1 2 3 4 5 6 7 8 9 10 11 12 13 14 15 16 17 18 19 20 21 22 23 24 25 26 27 28 29 30 31 32 33 34 35 36 37 38 39 40 41 42 43 44 45 46 47 48 49 50
000
ASUS43 KBIS 280010
RWRND

NORTH DAKOTA REGIONAL WEATHER ROUNDUP
NATIONAL WEATHER SERVICE BISMARCK ND
700 PM CDT SUN JUL 27 2014

NOTE: "FAIR" INDICATES FEW OR NO CLOUDS BELOW 12,000 FEET WITH NO
SIGNIFICANT WEATHER AND/OR OBSTRUCTIONS TO VISIBILITY.


NDZ001>003-009>011-017-280100-
NORTHWEST NORTH DAKOTA

CITY           SKY/WX    TMP DP  RH WIND       PRES   REMARKS
WILLISTON      SUNNY     74  51  44 E13       30.28F
6HR MIN TEMP:  67; 6HR MAX TEMP:  75;

MINOT          PTSUNNY   68  51  54 W9        30.27S
MINOT AFB      MOSUNNY   67  51  57 N7        30.26F
$$

NDZ018>021-031>035-040>046-280100-
SOUTHWEST NORTH DAKOTA

CITY           SKY/WX    TMP DP  RH WIND       PRES   REMARKS
BISMARCK       PTSUNNY   68  51  54 N10       30.27S
6HR MIN TEMP:  65; 6HR MAX TEMP:  71;

DICKINSON      MOSUNNY   71  51  49 NE9       30.28F
GARRISON         N/A     68  51  54 N12       30.28S
6HR MIN TEMP:  64; 6HR MAX TEMP:  70;

HETTINGER ARPT SUNNY     72  53  51 N13       30.30R
$$

NDZ004>008-012>016-024-026-027-054-280100-
NORTHEAST NORTH DAKOTA

CITY           SKY/WX    TMP DP  RH WIND       PRES   REMARKS
GRAND FORKS    CLOUDY    68  57  68 N9        30.17S
GRND FRKS AFB  CLOUDY    67  58  72 N13       30.19S
DEVILS LAKE    CLOUDY    64  52  63 N10       30.22S
$$

NDZ022-023-025-028>030-036>039-047>053-280100-
SOUTHEAST NORTH DAKOTA

CITY           SKY/WX    TMP DP  RH WIND       PRES   REMARKS
FARGO          CLOUDY    67  56  67 N14       30.17R
6HR MIN TEMP:  65; 6HR MAX TEMP:  69;

JAMESTOWN      CLOUDY    66  53  63 N13       30.22F
$$



USA.gov is the U.S. government's official web portal to all federal, state and local government web resources and services.